This is the latest recevied weather packets stored in our database for station/object NY3Q. If no packets are shown the sender has not sent any weather packets the latest 10 day(s).
| Time | Temp. | Humidity | Pressure | Rain* | Wind** | Luminosity | Snow |
|---|---|---|---|---|---|---|---|
| 1777753526 | 20° C | 93% | 1009.6 hPa | 0 mm | - | 173 W/m² | - |
| 1777753225 | 20° C | 93% | 1009.7 hPa | 0 mm | - | 159 W/m² | - |
| 1777752920 | 20° C | 93% | 1009.8 hPa | 0 mm | - | 102 W/m² | - |
| 1777752616 | 20° C | 94% | 1009.4 hPa | 0 mm | - | 136 W/m² | - |
| 1777752313 | 19.44° C | 94% | 1009.5 hPa | 0 mm | - | 118 W/m² | - |
| 1777752011 | 19.44° C | 93% | 1009.7 hPa | 0 mm | - | 86 W/m² | - |
| 1777751708 | 19.44° C | 93% | 1009.8 hPa | 0 mm | - | 54 W/m² | - |
| 1777751101 | 20.56° C | 93% | 1009.5 hPa | 0 mm | - | 59 W/m² | - |
| 1777750190 | 20.56° C | 94% | 1009.3 hPa | 0 mm | - | 31 W/m² | - |
| 1777749886 | 20.56° C | 94% | 1009.3 hPa | 0 mm | - | 57 W/m² | - |
| 1777749583 | 20.56° C | 94% | 1009.3 hPa | 0 mm | - | 99 W/m² | - |
| 1777749281 | 20.56° C | 94% | 1009.2 hPa | 0 mm | - | 105 W/m² | - |
| 1777748978 | 21.11° C | 94% | 1009.4 hPa | 0 mm | - | 86 W/m² | - |
| 1777748676 | 21.11° C | 94% | 1009.5 hPa | 0 mm | - | 65 W/m² | - |
| 1777748372 | 21.11° C | 94% | 1009.2 hPa | 0 mm | - | 152 W/m² | - |
| 1777748067 | 21.11° C | 95% | 1009 hPa | 0 mm | - | 114 W/m² | - |
| 1777747765 | 21.11° C | 95% | 1008.8 hPa | 0 mm | - | 135 W/m² | - |
| 1777747460 | 21.67° C | 95% | 1008.8 hPa | 0 mm | - | 141 W/m² | - |
| 1777746549 | 21.11° C | 95% | 1008.9 hPa | 0 mm | - | 61 W/m² | - |
| 1777745941 | 20.56° C | 95% | 1009 hPa | 0 mm | - | 227 W/m² | - |
| 1777745639 | 20.56° C | 95% | 1008.9 hPa | 0 mm | - | 109 W/m² | - |
| 1777745337 | 20.56° C | 95% | 1009.1 hPa | 0 mm | - | 147 W/m² | - |
| 1777745034 | 20.56° C | 95% | 1009.3 hPa | 0 mm | - | 127 W/m² | - |
| 1777744729 | 20° C | 95% | 1009.3 hPa | 0 mm | - | 161 W/m² | - |
| 1777743515 | 20° C | 95% | 1009.6 hPa | 0 mm | - | 164 W/m² | - |
* Rain latest hour (hover to see other rain measurements)
** Current wind speed in m/s (hover to see current wind gust speed)